Location: Newark
(47.3150°N, 5.1150°E)
Time: 23:33:09
(UTC+00:00)

O/OREOS (USA 219) - Pass Details

Date: 15 December 2019
Orbit: 621 x 646 km, 72.0° (Epoch: 22 May)

Event Time Altitude Azimuth Distance (km) Brightness Sun altitude
Exits shadow 05:50:34 11° 337° (NNW) 2,001 ? -14.3°
Maximum altitude 05:55:03 76° 63° (ENE) 666 ? -13.5°
Drops below altitude 10° 05:59:36 10° 150° (SSE) 2,022 ? -12.8°
Sets 06:01:51 0° 152° (SSE) 2,922 ? -12.5°
